Location: Bergfeld
(52.0500°N, 11.7833°E)
Time: 16:47:42
(UTC+00:00)

ATLAS CENTAUR R/B - Pass Details

Date: 17 February 2020
Orbit: 466 x 681 km, 64.7° (Epoch: 05 April)

Event Time Altitude Azimuth Distance (km) Brightness Sun altitude
Exits shadow 03:43:11 56° 151° (SSE) 759 2.0 -25.4°
Maximum altitude 03:43:34 58° 127° (SE) 739 2.0 -25.4°
Drops below altitude 10° 03:47:57 10° 49° (NE) 1,961 4.9 -24.7°
Sets 03:50:10 0° 45° (NE) 2,832 5.8 -24.4°
